Location: Bethera
(33.2010°N, 79.7880°W)
Time: 17:02:06
(UTC-04:00)

Daily predictions for brighter satellites

Satellite Brightness Start Highest point End
(mag) Time Altitude Azimuth Time Altitude Azimuth Time Altitude Azimuth
Cosmos 1110 Rocket 4.4 20:12:49 10° SSW 20:18:03 74° WNW 20:23:22 10° NNE
Cosmos 1892 3.2 20:18:00 10° NNE 20:21:32 37° E 20:25:06 10° SSE
Cosmos 1400 Rocket 3.1 20:20:00 10° N 20:23:46 46° E 20:27:34 10° SSE
Cosmos 2322 Rocket 3.0 20:20:14 10° SSE 20:24:52 27° ESE 20:29:30 10° NE
H-2A R/B 2.9 20:23:46 10° SSE 20:27:35 54° ENE 20:31:24 10° N
Cosmos 1302 Rocket 4.0 20:24:11 10° S 20:29:19 67° ESE 20:34:29 10° NNE
Envisat 4.4 20:26:16 10° ESE 20:29:51 20° ENE 20:33:26 10° NNE
Meteor 2-3 Rocket 3.8 20:27:26 10° N 20:33:10 76° E 20:38:55 10° SSE
FREGAT/IRIS 4.3 20:32:10 10° SSW 20:34:59 36° W 20:37:50 10° NNW
Cosmos 2360 Rocket 3.9 20:34:21 10° ESE 20:35:40 11° E 20:37:01 10° E
Cosmos 1980 Rocket 2.5 20:30:15 10° SSW 20:35:53 74° WNW 20:41:36 10° NNE
Cosmos 1315 Rocket 3.5 20:33:37 10° NNE 20:37:21 34° ENE 20:41:01 10° SE
USA 234 4.4 20:35:58 10° E 20:41:30 30° NE 20:47:03 10° NNW
Intercosmos 25 Rocket 4.2 20:43:08 13° SE 20:44:58 21° E 20:47:36 10° NE
SEDSat Delta rocket 3.8 20:40:11 10° WSW 20:45:09 50° SSE 20:50:25 12° E
OTV 4 0.7 20:44:28 10° WNW 20:47:16 52° SSW 20:49:08 18° SE
Cosmos 2227 Rocket 4.3 20:42:54 10° NW 20:47:29 26° WSW 20:52:04 10° SSW
CZ-2D R/B 3.3 20:44:08 10° SSE 20:47:59 64° ENE 20:51:51 10° N
Cosmos 1825 3.6 20:48:17 10° NNE 20:51:08 20° ENE 20:52:19 17° ESE
SL-16 R/B 2.4 20:46:57 10° S 20:52:22 49° ESE 20:57:48 10° NNE
Nadezhda 4 Rocket 4.2 20:49:52 10° N 20:56:09 81° W 21:02:27 10° S
GPS 2-04 Rocket1 3.8 20:56:13 10° W 20:59:23 29° SSW 21:01:34 17° SSE
Cosmos 1634 Rocket 4.0 20:53:31 10° S 20:59:46 73° E 21:06:04 10° N
Cosmos 1707 Rocket 3.8 20:57:38 10° SSW 21:02:03 72° W 21:06:30 10° N
Sakura Rocket 4.3 20:59:40 10° SSW 21:02:36 20° SSE 21:03:17 19° SE
ATLAS 5 CENTAUR R/B 4.4 20:59:58 10° NNE 21:02:54 14° NE 21:05:56 10° ENE
ERS-1 Rocket 4.4 21:02:09 17° E 21:03:44 19° ENE 21:07:15 10° NNE
USA 186 1.1 21:02:41 23° SSE 21:04:09 78° ENE 21:06:56 10° N
Cosmos 1092 Rocket 4.0 20:59:32 10° N 21:05:55 85° E 21:12:15 10° S
Helios 1B rocket 2.3 21:02:26 10° NNE 21:06:33 70° ESE 21:10:36 10° S
Lacrosse 4 Rocket 2.8 21:03:51 10° N 21:07:25 24° ENE 21:08:46 21° E
ALOS 4.2 21:03:48 10° SSW 21:07:51 29° W 21:11:56 10° NW
SAR-Lupe-4 3.7 21:07:59 26° SE 21:09:45 52° ENE 21:13:15 10° N
Cosmos 1939 Rocket 3.6 21:08:25 26° ESE 21:09:57 35° ENE 21:13:38 10° N
Cosmos 1655 Rocket 4.5 21:05:50 10° N 21:11:51 42° E 21:15:36 22° SE
ERBS 3.6 21:08:52 10° NNW 21:11:53 27° NE 21:12:44 24° ENE
Gblst 52 Del rocket 4.2 21:07:10 10° NW 21:12:56 76° SW 21:16:27 23° SE
Cosmos 1733 Rocket 3.9 21:09:15 10° NNE 21:13:13 30° E 21:14:14 27° ESE
Cosmos 1486 Rocket 4.0 21:09:46 10° NNW 21:15:01 88° WSW 21:19:20 16° SSE
Cosmos 1862 Rocket 4.0 21:13:01 23° SE 21:15:13 40° E 21:19:24 10° NNE
USA 229 DEB 4.4 21:14:01 10° SSE 21:19:40 29° ESE 21:25:24 10° NE
USA 229 4.4 21:14:08 10° SSE 21:19:46 28° ESE 21:25:26 10° NE
Cosmos 1992 Rocket 3.9 21:16:48 10° S 21:21:57 63° ESE 21:27:08 10° NNE
Cosmos 2227 4.2 21:19:37 10° NNW 21:25:23 84° WSW 21:29:15 21° SSE
Cosmos 1408 2.5 21:23:02 10° N 21:26:42 64° E 21:27:28 48° SE
Atlas Centaur 2 3.0 21:20:09 10° WSW 21:26:57 53° SSE 21:31:32 26° E
SAR-Lupe-1 3.9 21:26:08 42° SSE 21:27:13 78° ENE 21:30:49 10° N
Cosmos 2242 Rocket 3.9 21:29:07 10° SSW 21:33:37 68° W 21:38:07 10° N
Helios 1A 3.5 21:36:34 22° S 21:39:05 58° W 21:43:17 10° NNW
Cosmos 2279 Rocket 3.9 21:34:46 10° S 21:41:01 89° W 21:47:17 10° N
Cosmos 1503 Rocket 3.9 21:41:08 10° NNW 21:46:24 90° WSW 21:48:09 43° SSE
DELTA 2 R/B (1) 3.9 21:42:40 10° WNW 21:48:08 55° SSW 21:49:35 43° SSE
Cosmos 1354 Rocket 4.0 21:45:05 10° NNW 21:50:23 82° WSW 21:52:09 43° S
Resurs 01 Rocket 4.2 21:47:47 10° SW 21:50:47 18° W 21:53:47 10° NW
H-2A R/B 3.9 21:52:50 16° NE 21:52:50 16° NE 21:54:56 10° NNE
MINOTAUR IV R/B 4.4 21:48:39 10° NNW 21:53:15 80° ENE 21:53:36 73° SE
CZ-4B DEB 4.1 21:54:21 35° W 21:54:21 35° W 21:57:05 10° NNW
OAO 3 Rocket 3.3 21:50:42 10° W 21:55:37 71° N 21:56:38 53° ENE
YAOGAN 6 3.1 21:56:56 55° N 21:56:56 55° N 21:59:51 10° N
FALCON 9 R/B 3.3 22:00:21 10° W 22:00:47 14° WNW 22:00:47 14° WNW
Cosmos 1428 Rocket 4.4 21:56:25 10° N 22:02:33 85° W 22:04:53 41° S
SPOT 5 3.8 22:04:11 35° NE 22:04:11 35° NE 22:07:43 10° N
COSMOS 2428 4.5 22:10:12 18° NE 22:10:12 18° NE 22:11:49 10° NE
Cosmos 968 Rocket 4.3 22:02:38 10° N 22:06:50 37° NE 22:06:50 37° NE
Meteor 2-10 Rocket 3.7 22:05:37 42° S 22:07:41 89° E 22:13:32 10° N
Cosmos 2263 Rocket 2.0 22:02:29 10° NNW 22:08:03 72° ENE 22:08:25 69° E
Envisat 4.1 22:05:47 22° SSW 22:08:31 39° W 22:13:16 10° NNW
Cosmos 2322 Rocket 3.9 22:03:43 10° SW 22:08:42 33° WNW 22:13:44 10° N
Sich 1 Rocket 4.3 22:13:16 10° N 22:16:31 47° NNE 22:16:31 47° NNE
Cosmos 2360 Rocket 2.3 22:15:49 28° SSW 22:18:53 75° WNW 22:24:33 10° NNE
USA 234 3.2 22:22:54 59° S 22:24:05 73° SW 22:30:38 10° NW
Cosmos 2322 3.8 22:25:27 54° SW 22:26:45 76° WNW 22:32:28 10° NNE
NOAA 11 4.1 22:28:03 85° NW 22:28:03 85° NW 22:33:26 10° NNW
USA 245 4.3 22:30:44 72° NE 22:30:44 72° NE 22:35:44 10° N
SEDSat Delta rocket 3.9 22:25:49 10° W 22:30:34 63° WSW 22:30:34 63° WSW
SPOT 1/Viking Rocket 4.4 22:40:22 43° NNE 22:40:22 43° NNE 22:44:00 10° N
MetOp-B 4.5 22:42:09 62° WNW 22:42:09 62° WNW 22:46:57 10° NNW
ERS-1 Rocket 4.0 22:42:09 39° W 22:42:10 39° W 22:46:52 10° NNW
Lacrosse 4 Rocket 3.5 22:42:27 10° NW 22:45:08 23° W 22:45:08 23° W
ATLAS 5 CENTAUR R/B 2.6 22:42:18 10° NNW 22:47:45 67° N 22:47:45 67° N
ARGOS 3.8 22:52:58 53° NW 22:52:58 53° NW 22:57:11 10° NNW
Milstar 3 3.6 22:48:21 10° W 22:53:10 36° SW 22:53:10 36° SW
SeaSat 1 3.6 22:57:02 41° NNW 22:57:02 41° NNW 23:00:13 10° NNW
Cosmos 2278 Rocket 4.4 22:58:23 10° NNE 23:00:07 14° NE 23:00:07 14° NE
Terra 4.0 23:10:04 21° N 23:10:04 21° N 23:11:39 10° N
Cosmos 1844 Rocket 4.1 23:06:03 10° N 23:09:04 30° N 23:09:04 30° N
Atlas Centaur 2 3.4 23:08:48 10° W 23:14:12 50° WSW 23:14:12 50° WSW
Cosmos 2219 Rocket 4.2 23:28:37 20° NNE 23:28:37 20° NNE 23:30:16 10° NNE
H-2A R/B 4.0 23:33:27 24° NW 23:33:27 24° NW 23:35:38 10° NNW
CZ-4C R/B 4.2 23:26:36 10° N 23:32:09 29° NE 23:32:09 29° NE
H-2A R/B 4.1 23:19:38 10° W 23:51:40 53° WSW 23:51:40 53° WSW
